Cairo, Egypt

1:12 AM EET on December 15, 2017 (GMT +0200)
Cairo International Airport

Weather History for HECA - June, 2013

Change the Weather History Date:

Saturday, June 15, 2013

  Actual Average Record
Temperature  
Mean Temperature 74 °F -  
Max Temperature 85 °F 92 °F 102 °F (2001)
Min Temperature 63 °F 70 °F 63 °F (2013)
Cooling Degree Days 9    
Growing Degree Days 24 (Base 50)    
Moisture  
Dew Point 59 °F    
Average Humidity 56    
Maximum Humidity 78    
Minimum Humidity 28    
Precipitation  
Precipitation 0.00 in 0.00 in - ()
Sea Level Pressure  
Sea Level Pressure 29.89 in    
Wind  
Wind Speed 8 mph ()    
Max Wind Speed 15 mph    
Max Gust Speed -    
Visibility 6.2 miles    
Events      
Averages and records for this station are not official NWS values.
T = Trace of Precipitation, MM = Missing Value Source: Averaged Metar Reports

Daily Weather History Graph

Daily Weather History Graph

Search for Another Location

Airport or City:

Trip Planner

Search our weather history database for the weather conditions in past years. The results will help you decide how hot, cold, wet, or windy it might be!

Date:

Astronomy

Jun. 15, 2013 Rise Set
Actual Time 4:52 AM EET 6:57 PM EET
Civil Twilight 4:25 AM EET 7:24 PM EET
Nautical Twilight 3:51 AM EET 7:58 PM EET
Astronomical Twilight 3:15 AM EET 8:33 PM EET
Moon 10:43 AM EET (6/15) 11:18 PM EET (6/15)
Length of Visible Light 14h 59m
Length of Day
14h 04m
Waxing Crescent, 37% of the Moon is Illuminated
Jun 15
Waxing Crescent
Jun 16
First Quarter
Jun 23
Full
Jun 30
Last Quarter
Jul 8
New

Hourly Weather History & Observations

Time (EET) Temp. Heat Index Dew Point Humidity Pressure Visibility Wind Dir Wind Speed Gust Speed Precip Events Conditions
12:00 AM 73.4 °F - 59.0 °F 61% 29.89 in - NE 9.2 mph - N/A   Clear
12:30 AM 73.4 °F - 59.0 °F 61% 29.89 in - NE 9.2 mph - N/A   Clear
1:00 AM 73.4 °F - 60.8 °F 65% 29.89 in - NNE 9.2 mph - N/A   Clear
1:30 AM 71.6 °F - 60.8 °F 69% 29.89 in - NNE 9.2 mph - N/A   Clear
2:00 AM 72 °F - 61 °F 60% 29.89 in 6 mi NE 6.9 mph - -  
2:00 AM 71.6 °F - 60.8 °F 69% 29.89 in - NE 6.9 mph - N/A   Clear
2:30 AM 71.6 °F - 62.6 °F 73% 29.89 in - NNE 8.1 mph - N/A   Clear
3:00 AM 71.6 °F - 60.8 °F 69% 29.89 in - NNE 6.9 mph - N/A   Clear
3:30 AM 71.6 °F - 60.8 °F 69% 29.89 in - NNE 5.8 mph - N/A   Clear
4:00 AM 69.8 °F - 60.8 °F 73% 29.89 in - NE 5.8 mph - N/A   Clear
4:30 AM 69.8 °F - 60.8 °F 73% 29.89 in - NNE 5.8 mph - N/A   Clear
5:00 AM 69.8 °F - 60.8 °F 73% 29.89 in - NE 4.6 mph - N/A   Clear
5:30 AM 71.6 °F - 62.6 °F 73% 29.89 in - North 4.6 mph - N/A   Clear
6:00 AM 69.8 °F - 62.6 °F 78% 29.89 in - North 9.2 mph - N/A   Clear
6:30 AM 69.8 °F - 62.6 °F 78% 29.89 in - North 9.2 mph - N/A   Clear
7:00 AM 69.8 °F - 62.6 °F 78% 29.89 in - NNW 8.1 mph - N/A   Clear
7:30 AM 71.6 °F - 62.6 °F 73% 29.92 in - NNW 6.9 mph - N/A   Clear
8:00 AM 72 °F - 62 °F 63% 29.92 in 6 mi North 8.1 mph - -   Partly Cloudy
8:00 AM 71.6 °F - 62.6 °F 73% 29.92 in - North 8.1 mph - N/A   Clear
8:30 AM 73.4 °F - 60.8 °F 65% 29.92 in 6.2 mi North 8.1 mph - N/A   Scattered Clouds
9:00 AM 73.4 °F - 59.0 °F 61% 29.92 in 6.2 mi NNW 6.9 mph - N/A   Scattered Clouds
9:30 AM 77.0 °F - 59.0 °F 54% 29.92 in 6.2 mi NW 5.8 mph - N/A   Scattered Clouds
10:00 AM 77.0 °F - 57.2 °F 50% 29.92 in 6.2 mi North 6.9 mph - N/A   Scattered Clouds
10:30 AM 78.8 °F - 57.2 °F 47% 29.92 in 6.2 mi North 6.9 mph - N/A   Scattered Clouds
11:00 AM 78.8 °F - 57.2 °F 47% 29.92 in 6.2 mi NW 8.1 mph - N/A   Scattered Clouds
11:30 AM 80.6 °F 80.8 °F 57.2 °F 45% 29.89 in 6.2 mi NW 9.2 mph - N/A   Scattered Clouds
12:00 PM 80.6 °F 80.5 °F 55.4 °F 42% 29.89 in 6.2 mi NW 9.2 mph - N/A   Scattered Clouds
12:30 PM 82.4 °F 81.7 °F 55.4 °F 39% 29.89 in 6.2 mi NNW 9.2 mph - N/A   Scattered Clouds
1:00 PM 82.4 °F 82.0 °F 57.2 °F 42% 29.89 in 6.2 mi NW 10.4 mph - N/A   Scattered Clouds
1:30 PM 82.4 °F 81.7 °F 55.4 °F 39% 29.89 in 6.2 mi NW 10.4 mph - N/A   Scattered Clouds
2:00 PM 83 °F - 55 °F 28% 29.87 in 6 mi NNW 11.5 mph - -   Mostly Cloudy
2:00 PM 82.4 °F 81.7 °F 55.4 °F 39% 29.89 in 6.2 mi NNW 11.5 mph - N/A   Mostly Cloudy
2:30 PM 84.2 °F 83.0 °F 55.4 °F 37% 29.86 in 6.2 mi North 10.4 mph - N/A   Mostly Cloudy
3:00 PM 84.2 °F 83.0 °F 55.4 °F 37% 29.86 in 6.2 mi WNW 9.2 mph - N/A   Mostly Cloudy
3:30 PM 84.2 °F 83.0 °F 55.4 °F 37% 29.86 in 6.2 mi WNW 10.4 mph - N/A   Mostly Cloudy
4:00 PM 86.0 °F 84.5 °F 55.4 °F 35% 29.86 in 6.2 mi WNW 12.7 mph - N/A   Mostly Cloudy
4:30 PM 84.2 °F 83.0 °F 55.4 °F 37% 29.86 in 6.2 mi NNW 11.5 mph - N/A   Scattered Clouds
5:00 PM 84.2 °F 83.0 °F 55.4 °F 37% 29.86 in 6.2 mi NNW 10.4 mph - N/A   Scattered Clouds
5:30 PM 84.2 °F 83.5 °F 57.2 °F 40% 29.86 in 6.2 mi NW 12.7 mph - N/A   Scattered Clouds
6:00 PM 82.4 °F 81.7 °F 55.4 °F 39% 29.86 in 6.2 mi NW 12.7 mph - N/A   Scattered Clouds
6:30 PM 82.4 °F 82.0 °F 57.2 °F 42% 29.86 in 6.2 mi NNW 10.4 mph - N/A   Scattered Clouds
7:00 PM 82.4 °F 82.0 °F 57.2 °F 42% 29.86 in 6.2 mi NW 13.8 mph - N/A   Scattered Clouds
7:30 PM 80.6 °F 81.1 °F 59.0 °F 48% 29.86 in - NNW 15.0 mph - N/A   Clear
8:00 PM 71 °F - 60 °F 61% 29.88 in 6 mi North 15.0 mph - -  
8:00 PM 80.6 °F 81.5 °F 60.8 °F 51% 29.89 in - North 15.0 mph - N/A   Clear
8:30 PM 78.8 °F - 60.8 °F 54% 29.89 in - NNW 15.0 mph - N/A   Clear
9:00 PM 77.0 °F - 60.8 °F 57% 29.89 in - NNW 15.0 mph - N/A   Clear
9:30 PM 77.0 °F - 60.8 °F 57% 29.89 in - NNW 15.0 mph - N/A   Clear
10:00 PM 75.2 °F - 60.8 °F 61% 29.92 in - North 15.0 mph - N/A   Clear
10:30 PM 75.2 °F - 60.8 °F 61% 29.92 in - North 15.0 mph - N/A   Clear
11:00 PM 75.2 °F - 62.6 °F 65% 29.92 in - NNW 12.7 mph - N/A   Clear
11:30 PM 75.2 °F - 62.6 °F 65% 29.92 in - NNW 12.7 mph - N/A   Clear